Brenham, TX

9:04 PM CDT on March 22, 2017 (GMT -0500)
Brenham

Weather History for K11R - September, 2013

Change the Weather History Date:

Thursday, September 12, 2013

  Actual Average (KCLL) Record (KCLL)
Temperature  
Mean Temperature 84 °F -  
Max Temperature 95 °F 90 °F 103 °F (2011)
Min Temperature 73 °F 69 °F 50 °F (1940)
Cooling Degree Days 19    
Growing Degree Days 34 (Base 50)    
Moisture  
Dew Point 69 °F    
Average Humidity 63    
Maximum Humidity 90    
Minimum Humidity 31    
Precipitation  
Precipitation 0.00 in - - ()
Sea Level Pressure  
Sea Level Pressure 30.00 in    
Wind  
Wind Speed 1 mph (ESE)    
Max Wind Speed 8 mph    
Max Gust Speed -    
Visibility 10 miles    
Events Rain    
Averages and records for this station are not official NWS values.
T = Trace of Precipitation, MM = Missing Value Source: NWS Daily Summary

Daily Weather History Graph

Daily Weather History Graph

Search for Another Location

Airport or City:

Trip Planner

Search our weather history database for the weather conditions in past years. The results will help you decide how hot, cold, wet, or windy it might be!

Date:

Astronomy

Sep. 12, 2013 Rise Set
Actual Time 7:08 AM CDT 7:34 PM CDT
Civil Twilight 6:44 AM CDT 7:58 PM CDT
Nautical Twilight 6:16 AM CDT 8:26 PM CDT
Astronomical Twilight 5:47 AM CDT 8:55 PM CDT
Moon 2:09 PM CDT (9/12) No Moon Set
Length of Visible Light 13h 13m
Length of Day
12h 25m
Waxing Crescent, 50% of the Moon is Illuminated
Sep 12
Waxing Crescent
Sep 12
First Quarter
Sep 19
Full
Sep 26
Last Quarter
Oct 4
New

Hourly Weather History & Observations

Time (CDT) Temp. Heat Index Dew Point Humidity Pressure Visibility Wind Dir Wind Speed Gust Speed Precip Events Conditions
12:15 AM 79.7 °F - 73.4 °F 81% 30.05 in 10.0 mi Calm Calm - N/A   Clear
12:35 AM 79.2 °F - 73.0 °F 81% 30.05 in 10.0 mi Calm Calm - N/A   Clear
12:55 AM 78.6 °F - 72.9 °F 82% 30.04 in 10.0 mi Calm Calm - N/A   Clear
1:15 AM 78.1 °F - 72.9 °F 84% 30.04 in 10.0 mi Calm Calm - N/A   Clear
1:35 AM 78.4 °F - 72.1 °F 81% 30.03 in 10.0 mi Calm Calm - N/A   Clear
1:55 AM 77.4 °F - 72.7 °F 85% 30.04 in 10.0 mi Calm Calm - N/A   Clear
2:15 AM 76.3 °F - 72.5 °F 88% 30.04 in 7.0 mi Calm Calm - N/A   Clear
2:35 AM 75.9 °F - 72.5 °F 89% 30.04 in 7.0 mi Calm Calm - N/A   Clear
2:55 AM 75.4 °F - 72.0 °F 89% 30.04 in 10.0 mi Calm Calm - N/A   Clear
3:15 AM 75.7 °F - 71.1 °F 85% 30.03 in 10.0 mi Calm Calm - N/A   Clear
3:35 AM 75.2 °F - 70.9 °F 86% 30.03 in 10.0 mi Calm Calm - N/A   Clear
3:55 AM 75.6 °F - 70.2 °F 83% 30.03 in 10.0 mi Calm Calm - N/A   Clear
4:15 AM 74.8 °F - 70.2 °F 85% 30.03 in 10.0 mi Calm Calm - N/A   Clear
4:35 AM 74.3 °F - 70.3 °F 87% 30.03 in 10.0 mi Calm Calm - N/A   Clear
4:55 AM 74.1 °F - 70.3 °F 88% 30.03 in 10.0 mi Calm Calm - N/A   Clear
5:15 AM 73.6 °F - 69.8 °F 88% 30.03 in 10.0 mi Calm Calm - N/A   Clear
5:35 AM 73.2 °F - 70.0 °F 90% 30.03 in 7.0 mi Calm Calm - N/A   Clear
5:55 AM 74.3 °F - 69.8 °F 86% 30.03 in 10.0 mi Calm Calm - N/A   Clear
6:15 AM 73.9 °F - 69.6 °F 86% 30.03 in 10.0 mi Calm Calm - N/A   Clear
6:35 AM 73.9 °F - 69.8 °F 87% 30.04 in 10.0 mi Calm Calm - N/A   Clear
6:55 AM 74.1 °F - 69.8 °F 86% 30.04 in 10.0 mi Calm Calm - N/A   Clear
7:15 AM 73.9 °F - 70.0 °F 87% 30.05 in 10.0 mi Calm Calm - N/A   Clear
7:35 AM 73.4 °F - 70.0 °F 89% 30.05 in 7.0 mi Calm Calm - N/A   Clear
7:55 AM 74.3 °F - 70.9 °F 89% 30.05 in 7.0 mi Calm Calm - N/A   Clear
8:15 AM 76.3 °F - 72.5 °F 88% 30.05 in 10.0 mi Calm Calm - N/A   Clear
8:35 AM 78.1 °F - 72.9 °F 84% 30.05 in 10.0 mi Calm Calm - N/A   Clear
8:55 AM 79.7 °F - 73.6 °F 81% 30.06 in 10.0 mi Calm Calm - N/A   Clear
9:15 AM 80.8 °F 85.9 °F 74.1 °F 80% 30.06 in 10.0 mi Calm Calm - N/A   Clear
9:35 AM 82.6 °F 89.1 °F 74.5 °F 76% 30.06 in 10.0 mi NNE 3.5 mph - N/A   Clear
9:55 AM 84.2 °F 91.6 °F 74.5 °F 72% 30.06 in 10.0 mi North 3.5 mph - N/A   Clear
10:15 AM 85.6 °F 94.2 °F 74.8 °F 70% 30.07 in 10.0 mi NE 3.5 mph - N/A   Clear
10:35 AM 86.7 °F 94.6 °F 73.6 °F 65% 30.07 in 10.0 mi ENE 5.8 mph - N/A   Scattered Clouds
10:55 AM 87.6 °F 95.2 °F 73.2 °F 62% 30.07 in 10.0 mi NNE 3.5 mph - N/A   Scattered Clouds
11:15 AM 88.2 °F 95.5 °F 72.9 °F 60% 30.07 in 10.0 mi East 4.6 mph - N/A   Scattered Clouds
11:35 AM 89.6 °F 96.2 °F 71.4 °F 55% 30.07 in 10.0 mi NE 4.6 mph - N/A   Scattered Clouds
11:55 AM 88.7 °F 94.3 °F 70.9 °F 55% 30.06 in 10.0 mi East 4.6 mph - N/A   Clear
12:15 PM 90.1 °F 96.3 °F 70.7 °F 53% 30.06 in 10.0 mi East 4.6 mph - N/A   Clear
12:35 PM 91.2 °F 98.0 °F 71.6 °F 52% 30.05 in 10.0 mi NNW 4.6 mph - N/A   Clear
12:55 PM 91.9 °F 96.9 °F 68.9 °F 47% 30.04 in 10.0 mi ENE 4.6 mph - N/A   Scattered Clouds
1:15 PM 92.5 °F 96.9 °F 68.5 °F 45% 30.03 in 10.0 mi ESE 3.5 mph - N/A   Scattered Clouds
1:35 PM 91.8 °F 96.5 °F 68.9 °F 47% 30.02 in 10.0 mi NE 5.8 mph - N/A   Scattered Clouds
1:55 PM 92.7 °F 95.8 °F 66.2 °F 42% 30.01 in 10.0 mi NNE 8.1 mph - N/A   Scattered Clouds
2:15 PM 91.8 °F 95.1 °F 66.9 °F 44% 30.00 in 10.0 mi North 5.8 mph - N/A   Scattered Clouds
2:35 PM 88.5 °F 91.9 °F 68.0 °F 50% 29.99 in 10.0 mi SSE 5.8 mph - N/A   Mostly Cloudy
2:55 PM 87.3 °F 90.2 °F 66.9 °F 51% 29.99 in 10.0 mi SSW 4.6 mph - N/A   Scattered Clouds
3:15 PM 88.7 °F 91.9 °F 67.5 °F 49% 29.97 in 10.0 mi SW 4.6 mph - N/A   Scattered Clouds
3:35 PM 92.5 °F 95.9 °F 66.9 °F 43% 29.95 in 10.0 mi WSW 3.5 mph - N/A   Scattered Clouds
3:55 PM 93.7 °F 96.2 °F 65.1 °F 39% 29.95 in 10.0 mi Calm Calm - N/A   Clear
4:15 PM 95.0 °F 97.0 °F 63.9 °F 36% 29.93 in 10.0 mi Calm Calm - N/A   Scattered Clouds
4:35 PM 95.0 °F 97.4 °F 64.8 °F 37% 29.93 in 10.0 mi South 5.8 mph - N/A   Scattered Clouds
4:55 PM 94.8 °F 96.2 °F 63.0 °F 35% 29.92 in 10.0 mi Calm Calm - N/A   Clear
5:15 PM 95.4 °F 96.6 °F 63.0 °F 34% 29.92 in 10.0 mi Calm Calm - N/A   Clear
5:35 PM 95.4 °F 96.2 °F 62.2 °F 33% 29.91 in 10.0 mi Calm Calm - N/A   Clear
5:55 PM 95.5 °F 96.0 °F 61.3 °F 32% 29.91 in 10.0 mi Calm Calm - N/A   Scattered Clouds
6:15 PM 95.4 °F 95.3 °F 60.4 °F 31% 29.91 in 10.0 mi South 5.8 mph - N/A   Scattered Clouds
6:35 PM 95.4 °F 96.2 °F 62.1 °F 33% 29.91 in 10.0 mi SSW 4.6 mph - N/A   Scattered Clouds
6:55 PM 93.0 °F 96.9 °F 67.6 °F 43% 29.91 in 7.0 mi Calm Calm - N/A Rain Light Rain
7:15 PM 91.0 °F 92.2 °F 63.9 °F 40% 29.92 in 10.0 mi East 3.5 mph - N/A   Mostly Cloudy
7:35 PM 90.7 °F 91.3 °F 62.6 °F 39% 29.92 in 10.0 mi ESE 5.8 mph - N/A   Scattered Clouds
7:55 PM 89.6 °F 90.4 °F 62.8 °F 41% 29.93 in 10.0 mi Calm Calm - N/A   Scattered Clouds
8:15 PM 88.9 °F 90.0 °F 63.5 °F 43% 29.93 in 10.0 mi Calm Calm - N/A   Scattered Clouds
8:35 PM 88.2 °F 89.6 °F 64.6 °F 45% 29.94 in 10.0 mi ESE 3.5 mph - N/A   Scattered Clouds
8:55 PM 87.3 °F 88.6 °F 64.0 °F 46% 29.95 in 10.0 mi SE 4.6 mph - N/A   Clear
9:15 PM 86.2 °F 87.6 °F 64.4 °F 48% 29.96 in 10.0 mi SSE 4.6 mph - N/A   Clear
9:35 PM 85.3 °F 87.1 °F 65.3 °F 51% 29.97 in 10.0 mi SSE 4.6 mph - N/A   Clear
9:55 PM 84.6 °F 86.6 °F 65.8 °F 53% 29.97 in 10.0 mi SSE 4.6 mph - N/A   Clear
10:15 PM 83.7 °F 86.0 °F 66.4 °F 56% 29.97 in 10.0 mi SSE 3.5 mph - N/A   Clear
10:35 PM 83.5 °F 86.0 °F 66.7 °F 57% 29.97 in 10.0 mi SSE 3.5 mph - N/A   Clear
10:55 PM 83.3 °F 85.9 °F 67.1 °F 58% 29.98 in 10.0 mi Calm Calm - N/A   Clear
11:15 PM 82.8 °F 85.5 °F 67.5 °F 60% 29.98 in 10.0 mi Calm Calm - N/A   Clear
11:35 PM 82.4 °F 85.4 °F 68.0 °F 62% 29.97 in 10.0 mi SSW 3.5 mph - N/A   Clear
11:55 PM 81.7 °F 84.5 °F 68.2 °F 63% 29.97 in 10.0 mi SSW 3.5 mph - N/A   Clear